TimeAEST,TemperatureF,Dew PointF,Humidity,Sea Level PressureIn,VisibilityMPH,Wind Direction,Wind SpeedMPH,Gust SpeedMPH,PrecipitationIn,Events,Conditions,WindDirDegrees,DateUTC
12:00 AM,76,65,62,29.86,,NW,12.7,,,,,320,2012-11-17 14:00:00
12:00 AM,77.0,66.2,69,29.86,-9999.0,NW,12.7,-,N/A,,Unknown,320,2012-11-17 14:00:00
12:30 AM,77.0,64.4,65,29.86,-9999.0,NW,19.6,-,N/A,,Unknown,310,2012-11-17 14:30:00
1:00 AM,77.0,64.4,65,29.86,-9999.0,WNW,12.7,-,N/A,,Unknown,290,2012-11-17 15:00:00
1:30 AM,77.0,64.4,65,29.83,-9999.0,WNW,13.8,-,N/A,,Unknown,300,2012-11-17 15:30:00
2:00 AM,77.0,64.4,65,29.83,-9999.0,WNW,11.5,-,N/A,,Unknown,300,2012-11-17 16:00:00
2:30 AM,77.0,64.4,65,29.83,-9999.0,NW,15.0,-,N/A,,Unknown,310,2012-11-17 16:30:00
3:00 AM,76,64,58,29.83,,WNW,15.0,,,,,300,2012-11-17 17:00:00
3:00 AM,77.0,64.4,65,29.83,-9999.0,WNW,15.0,-,N/A,,Unknown,300,2012-11-17 17:00:00
3:30 AM,77.0,64.4,65,29.83,-9999.0,NW,13.8,-,N/A,,Unknown,310,2012-11-17 17:30:00
4:00 AM,77.0,64.4,65,29.83,-9999.0,NNW,17.3,-,N/A,,Unknown,330,2012-11-17 18:00:00
4:30 AM,77.0,64.4,65,29.83,-9999.0,North,11.5,-,N/A,,Unknown,350,2012-11-17 18:30:00
5:00 AM,77.0,64.4,65,29.83,-9999.0,North,12.7,-,N/A,,Unknown,350,2012-11-17 19:00:00
5:30 AM,77.0,64.4,65,29.83,-9999.0,North,12.7,-,N/A,,Unknown,360,2012-11-17 19:30:00
6:00 AM,76,63,55,29.85,,North,10.4,,,,,350,2012-11-17 20:00:00
6:00 AM,77.0,62.6,61,29.86,-9999.0,North,10.4,-,N/A,,Unknown,350,2012-11-17 20:00:00
6:30 AM,77.0,64.4,65,29.86,-9999.0,NNW,10.4,-,N/A,,Unknown,340,2012-11-17 20:30:00
7:00 AM,77.0,64.4,65,29.86,-9999.0,NNW,13.8,-,N/A,,Unknown,330,2012-11-17 21:00:00
7:30 AM,78.8,66.2,65,29.89,-9999.0,NNW,12.7,-,N/A,,Unknown,340,2012-11-17 21:30:00
8:00 AM,78.8,64.4,61,29.89,-9999.0,NW,15.0,-,N/A,,Unknown,320,2012-11-17 22:00:00
8:30 AM,80.6,66.2,61,29.89,-9999.0,NNW,17.3,-,N/A,,Unknown,330,2012-11-17 22:30:00
9:00 AM,79,65,54,29.89,,NW,18.4,,,,,320,2012-11-17 23:00:00
9:00 AM,78.8,64.4,61,29.89,-9999.0,NW,18.4,-,N/A,,Unknown,320,2012-11-17 23:00:00
9:30 AM,80.6,66.2,61,29.89,-9999.0,NW,17.3,-,N/A,,Unknown,320,2012-11-17 23:30:00
10:00 AM,78.8,64.4,61,29.86,-9999.0,NW,18.4,-,N/A,,Unknown,320,2012-11-18 00:00:00
10:30 AM,80.6,64.4,58,29.86,-9999.0,NW,16.1,-,N/A,,Unknown,310,2012-11-18 00:30:00
11:00 AM,80.6,64.4,58,29.86,-9999.0,NW,16.1,-,N/A,,Unknown,320,2012-11-18 01:00:00
11:30 AM,80.6,64.4,58,29.83,-9999.0,NW,17.3,-,N/A,,Unknown,320,2012-11-18 01:30:00
12:00 PM,80,65,51,29.83,,NW,17.3,,,,,320,2012-11-18 02:00:00
12:00 PM,80.6,64.4,58,29.83,-9999.0,NW,17.3,-,N/A,,Unknown,320,2012-11-18 02:00:00
12:30 PM,80.6,66.2,61,29.83,-9999.0,NW,16.1,-,N/A,,Unknown,320,2012-11-18 02:30:00
1:00 PM,82.4,66.2,58,29.80,-9999.0,NNW,18.4,-,N/A,,Unknown,330,2012-11-18 03:00:00
1:30 PM,84.2,66.2,55,29.80,-9999.0,NNW,15.0,-,N/A,,Unknown,330,2012-11-18 03:30:00
2:00 PM,82.4,64.4,54,29.77,-9999.0,NNW,18.4,-,N/A,,Unknown,330,2012-11-18 04:00:00
2:30 PM,84.2,64.4,51,29.77,-9999.0,NW,18.4,-,N/A,,Unknown,320,2012-11-18 04:30:00
3:00 PM,83,64,43,29.76,,NW,19.6,,,,,320,2012-11-18 05:00:00
3:00 PM,82.4,64.4,54,29.77,-9999.0,NW,19.6,-,N/A,,Unknown,320,2012-11-18 05:00:00
3:30 PM,84.2,62.6,48,29.74,-9999.0,NNW,19.6,-,N/A,,Unknown,330,2012-11-18 05:30:00
4:00 PM,84.2,64.4,51,29.74,-9999.0,NNW,19.6,-,N/A,,Unknown,330,2012-11-18 06:00:00
4:30 PM,82.4,66.2,58,29.74,-9999.0,NW,18.4,-,N/A,,Unknown,320,2012-11-18 06:30:00
5:00 PM,82.4,66.2,58,29.74,-9999.0,NNW,17.3,-,N/A,,Unknown,330,2012-11-18 07:00:00
5:30 PM,80.6,64.4,58,29.77,-9999.0,NNW,15.0,-,N/A,,Unknown,330,2012-11-18 07:30:00
6:00 PM,79,66,55,29.77,,NW,18.4,,,,,320,2012-11-18 08:00:00
6:00 PM,78.8,66.2,65,29.77,-9999.0,NW,18.4,-,N/A,,Unknown,320,2012-11-18 08:00:00
6:30 PM,78.8,66.2,65,29.77,-9999.0,NW,19.6,-,N/A,,Unknown,320,2012-11-18 08:30:00
7:00 PM,78.8,64.4,61,29.77,-9999.0,NNW,11.5,-,N/A,,Unknown,340,2012-11-18 09:00:00
7:30 PM,77.0,64.4,65,29.80,-9999.0,NNW,12.7,-,N/A,,Unknown,340,2012-11-18 09:30:00
8:00 PM,77.0,66.2,69,29.80,-9999.0,NNW,12.7,-,N/A,,Unknown,340,2012-11-18 10:00:00
8:30 PM,77.0,66.2,69,29.83,-9999.0,NNW,13.8,-,N/A,,Unknown,330,2012-11-18 10:30:00
9:00 PM,77,67,64,29.83,,North,12.7,,,,,350,2012-11-18 11:00:00
9:00 PM,77.0,68.0,74,29.83,-9999.0,North,12.7,-,N/A,,Unknown,350,2012-11-18 11:00:00
9:30 PM,77.0,68.0,74,29.86,-9999.0,NNW,13.8,-,N/A,,Unknown,330,2012-11-18 11:30:00
10:00 PM,77.0,68.0,74,29.86,-9999.0,NNW,13.8,-,N/A,,Unknown,330,2012-11-18 12:00:00
10:30 PM,77.0,68.0,74,29.86,-9999.0,North,11.5,-,N/A,,Unknown,360,2012-11-18 12:30:00
11:00 PM,77.0,66.2,69,29.86,-9999.0,North,8.1,-,N/A,,Unknown,10,2012-11-18 13:00:00
11:30 PM,77.0,66.2,69,29.86,-9999.0,North,4.6,-,N/A,,Unknown,350,2012-11-18 13:30:00